Wind_Speed
39 44 47 53 50 50 50 54 55 53 53 51 50 49 49 48 49 50 51 52 53 54 55 54 54 55 56 54 57 57 57 53 52 52 51 50 47 47 52 53 50 48 44
24 26 33 39 41 45 45 46 47 47 47 48 47 47 47 47 48 49 49 51 52 53 54 55 56 56 56 58 60 59 60 61 61 60 59 56 54 53 50 49 52 52 51
11 17 22 23 36 28 36 43 45 47 45 44 44 45 47 48 49 51 50 49 49 49 51 53 55 57 58 59 61 63 63 63 64 64 66 65 62 61 57 54 52 51 56
11 16 20 23 20 31 23 30 34 35 34 35 34 35 37 39 42 43 45 46 48 48 50 51 53 56 59 62 63 65 66 68 67 68 68 67 65 66 64 61 58 56 56
11 11 14 15 19 27 20 20 22 24 25 27 30 34 36 37 39 41 42 45 47 49 52 54 57 59 61 63 64 66 69 71 71 71 71 70 68 70 67 64 63 62 62
13 6 4 11 16 24 26 25 26 28 30 31 34 34 37 37 38 39 40 40 40 41 43 46 49 53 55 58 62 66 68 69 70 71 72 73 72 71 70 69 67 66 65
17 11 7 5 3 4 8 13 18 21 24 27 30 32 32 27 27 29 29 30 33 35 38 40 42 45 49 52 55 58 60 64 68 68 69 70 70 68 70 73 72 71 68
16 14 11 7 3 1 5 10 14 16 19 22 21 21 21 20 22 25 30 30 30 32 36 38 39 43 46 47 50 51 54 56 58 61 65 69 68 70 70 71 69 72 74
17 16 14 11 9 8 7 7 8 10 13 15 16 19 21 22 24 26 26 26 29 32 36 36 38 44 42 43 43 47 52 53 54 56 60 62 62 64 64 67 68 68 68
16 17 18 16 15 14 10 10 10 12 15 18 20 20 20 21 21 21 23 26 29 34 36 40 40 41 40 42 41 39 38 43 49 53 56 60 61 66 65 65 68 68 65
15 16 16 21 22 10 12 12 12 13 15 18 21 21 23 23 24 26 28 32 36 38 40 45 48 45 39 37 42 39 42 43 46 49 56 60 61 64 67 67 67 67 65
18 17 16 16 17 12 8 12 15 17 21 25 26 26 25 25 27 30 31 30 35 40 40 39 40 43 39 40 38 42 42 47 51 52 51 55 60 60 63 64 64 62 63
25 24 21 19 16 13 11 11 14 16 20 26 32 29 25 27 28 22 25 30 35 41 45 46 44 37 37 39 40 41 43 46 46 51 53 52 56 61 60 60 60 58 58
25 26 27 25 23 21 21 22 22 20 21 22 21 26 25 25 21 23 26 30 35 37 40 44 36 31 33 31 34 36 41 40 41 39 40 41 42 46 53 61 61 60 56
30 31 30 28 29 29 29 29 28 26 24 21 20 20 22 21 23 24 26 27 28 30 30 29 27 29 29 29 34 34 32 32 29 34 35 33 34 36 42 39 55 53 51
35 35 35 35 32 33 34 33 33 34 32 30 22 25 24 25 26 27 27 27 29 30 29 26 27 26 25 29 28 27 25 23 28 26 25 26 33 33 32 33 41 51 51
40 40 38 38 38 38 34 33 35 36 35 34 33 31 31 32 30 30 30 28 28 28 27 24 22 22 25 27 25 29 23 16 19 17 22 23 24 28 35 38 35 39 45
44 44 44 42 45 45 44 40 38 39 38 39 37 38 38 37 36 33 31 30 29 27 21 23 21 20 17 20 22 18 16 13 8 8 10 13 16 20 23 24 26 30 36
50 51 51 51 49 49 49 44 42 40 41 42 43 39 41 40 39 37 32 31 29 26 22 20 17 13 14 18 17 13 15 15 14 8 7 10 12 13 20 22 22 29 35
54 55 55 55 53 53 52 51 50 46 45 44 45 43 43 41 40 38 35 31 30 29 26 21 17 15 13 11 9 12 11 12 15 14 7 6 9 10 12 20 15 23 21
54 57 59 60 57 56 55 55 56 53 52 47 42 45 44 44 43 41 38 35 31 30 28 25 21 18 16 13 12 10 9 5 5 7 10 10 12 10 6 15 15 10 21
57 58 61 61 61 61 61 60 61 59 59 53 47 41 47 45 45 45 41 37 35 32 30 28 25 22 19 18 15 14 13 10 6 4 6 8 8 8 11 15 14 17 18
62 60 60 59 59 59 61 59 59 65 68 65 55 49 46 51 46 46 45 39 36 34 32 29 28 27 24 22 21 19 17 15 13 10 10 10 9 9 10 8 9 11 12
58 58 57 55 52 55 57 58 60 60 65 67 62 55 51 47 52 47 47 42 39 36 35 32 31 29 28 27 24 23 22 22 21 20 19 18 17 17 18 18 18 18 19
56 56 55 51 48 52 56 58 60 62 64 67 65 54 49 50 49 51 49 48 42 40 37 36 34 33 32 30 28 27 26 25 25 24 24 24 24 24 25 25 25 26 27
52 53 53 51 47 50 54 57 61 64 63 60 59 53 48 48 41 55 51 49 47 43 41 37 34 33 34 34 33 33 31 30 28 28 28 27 26 26 26 26 27 28 29
Wind_Direction
214 218 220 224 231 228 234 237 241 243 245 250 254 256 258 259 260 260 260 260 261 262 263 263 264 264 262 259 256 255 256 255 254 255 257 258 258 257 256 254 254 254 254
199 211 218 227 230 232 230 235 240 243 246 249 252 256 258 260 260 261 262 264 265 265 265 265 263 262 262 261 259 258 258 258 257 256 255 256 258 260 260 258 257 255 255
168 188 203 219 228 237 240 235 239 244 249 254 256 257 259 261 263 265 266 264 265 264 264 263 263 262 261 260 259 258 258 257 257 257 257 259 260 257 258 259 259 256 254
157 170 185 204 221 224 241 235 239 246 252 257 259 258 260 259 259 259 261 261 261 261 262 261 260 260 260 259 257 257 257 256 256 255 257 256 258 257 256 256 258 256 255
99 141 172 187 195 199 205 210 218 222 230 236 242 246 250 252 256 258 258 259 261 262 264 264 262 260 258 257 257 257 256 256 255 255 255 254 253 254 255 255 252 254 253
56 67 189 213 215 208 208 208 215 221 229 235 241 246 251 254 259 262 263 264 264 264 266 265 265 264 263 263 262 259 258 257 258 257 255 255 252 252 254 254 252 250 251
45 57 82 121 155 213 237 241 244 241 240 244 247 251 254 252 255 258 258 265 267 265 271 271 272 271 269 267 264 261 260 259 259 259 259 258 256 254 253 252 253 253 250
32 37 39 37 48 256 241 231 240 246 245 246 240 234 237 250 255 263 269 270 271 270 276 279 275 276 270 266 264 262 259 257 257 257 259 258 257 257 255 253 253 253 251
15 10 1 348 329 308 294 285 260 224 221 240 248 252 256 260 262 267 272 269 272 279 283 281 282 282 278 268 266 266 261 262 260 259 257 255 256 255 255 253 252 252 253
14 13 9 356 320 291 288 290 289 267 262 265 266 269 265 265 269 273 274 281 282 281 279 279 277 283 280 273 265 264 265 265 263 261 259 258 256 253 251 251 253 252 255
340 346 351 1 357 277 269 283 287 289 287 283 275 272 272 274 278 283 285 283 281 279 277 277 278 278 277 273 266 266 272 267 269 267 262 258 256 254 248 248 248 252 255
312 316 322 332 350 360 292 293 295 292 289 281 275 271 269 271 275 281 286 285 287 284 282 283 288 274 272 273 265 269 275 274 271 274 270 261 253 251 247 246 246 247 252
296 297 300 303 309 311 297 294 300 306 304 293 269 261 269 275 280 284 291 293 294 289 287 288 286 270 269 274 269 271 276 278 273 274 269 263 254 249 247 245 245 247 250
295 294 291 288 285 286 285 288 287 294 304 305 288 255 264 276 274 287 301 308 316 301 288 278 279 264 268 274 278 276 280 282 277 272 267 266 256 251 249 244 242 244 247
294 294 294 290 286 281 276 275 279 281 290 296 281 264 264 261 272 286 301 307 314 328 321 307 290 274 268 281 283 282 281 279 291 283 266 253 255 251 242 249 245 241 245
291 293 288 292 293 283 277 275 273 273 276 280 268 275 261 264 275 285 294 302 303 311 312 303 297 293 283 282 283 283 284 294 298 286 253 247 254 249 241 244 250 241 245
285 285 285 284 286 287 281 277 275 272 271 270 269 267 266 267 273 281 287 295 297 305 309 313 289 295 278 286 289 276 283 294 294 294 263 262 252 241 237 242 241 240 242
277 278 276 278 281 281 282 281 275 273 270 267 264 263 265 268 272 275 282 286 289 298 304 314 306 276 281 278 297 273 282 261 309 283 266 256 245 243 240 241 246 245 243
275 273 271 272 272 274 276 279 279 276 272 267 264 262 263 265 269 272 272 277 281 283 292 301 322 319 309 282 293 302 297 264 278 268 282 282 252 259 230 249 252 244 243
279 277 275 273 270 268 270 273 277 276 270 272 265 265 262 262 263 267 269 269 271 273 277 284 295 306 319 343 303 294 299 309 276 252 261 265 260 264 270 279 248 253 250
276 274 274 274 272 272 270 269 268 271 268 266 271 261 261 262 263 263 265 265 263 264 268 270 274 282 294 307 321 335 348 351 300 262 273 293 315 265 277 226 250 246 234
278 277 277 277 277 276 272 267 262 264 263 265 263 269 254 256 260 260 261 260 260 259 259 265 264 266 273 283 290 299 310 327 348 318 317 354 311 311 267 260 267 238 252
284 282 281 280 279 276 273 269 262 260 261 262 263 262 264 250 253 256 255 256 254 256 255 257 262 262 261 263 269 276 281 287 289 283 282 284 288 295 291 278 259 267 279
283 282 280 278 275 270 268 266 263 259 259 259 264 263 259 262 244 250 251 250 252 248 252 251 254 259 262 260 261 263 265 268 272 274 275 276 276 273 274 275 274 272 271
285 284 283 280 274 267 265 263 262 260 258 258 260 260 254 255 247 240 246 246 246 247 246 248 249 253 257 259 260 262 264 264 265 267 269 270 271 272 273 274 275 275 275
287 286 283 282 275 267 262 261 260 259 258 257 257 253 248 250 251 236 241 243 243 243 244 244 245 247 250 252 254 256 257 259 262 263 264 264 264 264 266 267 268 269 270
Height
5619 5631 5650 5665 5676 5684 5693 5702 5709 5716 5724 5730 5734 5738 5742 5745 5748 5750 5752 5754 5756 5757 5759 5761 5762 5763 5766 5768 5770 5772 5774 5777 5777 5777 5779 5780 5783 5785 5787 5789 5790 5793 5795
5622 5636 5651 5662 5672 5679 5686 5695 5701 5707 5714 5720 5724 5728 5731 5734 5736 5738 5741 5742 5744 5746 5748 5749 5750 5751 5752 5754 5756 5758 5760 5763 5763 5765 5766 5769 5772 5775 5777 5779 5781 5783 5784
5630 5637 5647 5658 5668 5675 5683 5689 5696 5702 5707 5711 5715 5718 5720 5722 5724 5726 5728 5729 5730 5732 5733 5735 5737 5738 5739 5740 5741 5742 5745 5747 5748 5750 5750 5754 5760 5760 5765 5768 5770 5771 5772
5636 5641 5648 5657 5665 5673 5679 5683 5689 5695 5699 5702 5705 5708 5710 5711 5712 5713 5715 5716 5717 5718 5718 5720 5721 5723 5724 5725 5725 5726 5729 5729 5733 5733 5737 5738 5742 5744 5750 5755 5757 5759 5760
5647 5649 5653 5657 5663 5668 5674 5678 5683 5687 5691 5695 5696 5698 5700 5702 5702 5703 5705 5705 5705 5705 5706 5707 5707 5708 5708 5709 5709 5709 5711 5712 5714 5717 5720 5723 5726 5726 5732 5738 5743 5743 5747
5658 5659 5660 5662 5664 5667 5672 5675 5678 5681 5683 5686 5688 5690 5692 5692 5693 5694 5695 5694 5694 5693 5692 5692 5692 5692 5692 5693 5693 5694 5695 5696 5697 5699 5702 5706 5709 5712 5715 5719 5723 5730 5732
5667 5666 5666 5667 5669 5670 5672 5674 5676 5677 5678 5679 5681 5683 5685 5685 5685 5686 5686 5685 5684 5683 5682 5682 5680 5679 5677 5677 5676 5677 5678 5679 5681 5683 5686 5688 5692 5696 5698 5700 5706 5710 5716
5673 5672 5672 5672 5671 5671 5672 5672 5672 5673 5674 5676 5678 5679 5679 5678 5678 5678 5678 5676 5674 5674 5673 5671 5669 5667 5664 5663 5662 5662 5663 5663 5664 5666 5668 5670 5675 5677 5681 5684 5687 5689 5695
5675 5674 5673 5672 5671 5670 5669 5669 5669 5669 5671 5672 5673 5672 5671 5671 5670 5670 5668 5667 5666 5664 5662 5660 5657 5655 5651 5650 5649 5648 5649 5650 5650 5651 5652 5653 5657 5659 5663 5666 5669 5673 5676
5676 5674 5671 5669 5668 5666 5666 5666 5666 5666 5666 5666 5666 5666 5665 5664 5662 5662 5661 5659 5658 5656 5653 5650 5647 5644 5640 5638 5637 5636 5636 5636 5635 5635 5635 5637 5639 5642 5645 5649 5653 5656 5661
5678 5675 5672 5668 5664 5661 5664 5664 5663 5662 5662 5661 5660 5659 5658 5658 5657 5655 5653 5652 5649 5647 5643 5640 5636 5633 5630 5627 5626 5626 5625 5623 5622 5620 5618 5619 5620 5623 5627 5632 5636 5640 5645
5676 5674 5671 5669 5666 5662 5661 5661 5660 5658 5657 5655 5653 5652 5651 5650 5649 5648 5647 5646 5642 5636 5632 5629 5625 5621 5619 5617 5615 5614 5612 5610 5608 5605 5602 5602 5602 5606 5610 5615 5620 5626 5631
5672 5670 5668 5666 5663 5662 5660 5658 5655 5654 5651 5647 5644 5643 5644 5644 5643 5642 5640 5637 5632 5626 5620 5616 5613 5610 5608 5607 5605 5603 5600 5596 5593 5589 5585 5584 5586 5590 5594 5599 5605 5611 5616
5668 5665 5662 5660 5658 5657 5655 5653 5651 5648 5645 5641 5635 5635 5637 5637 5636 5635 5633 5628 5622 5614 5608 5603 5600 5599 5598 5597 5595 5592 5589 5585 5580 5574 5571 5571 5573 5575 5578 5584 5590 5597 5603
5660 5658 5655 5652 5650 5648 5646 5644 5643 5641 5639 5636 5634 5631 5630 5629 5628 5627 5624 5620 5615 5607 5600 5596 5592 5590 5590 5589 5586 5583 5580 5575 5568 5562 5559 5560 5562 5565 5568 5572 5576 5583 5591
5650 5648 5646 5644 5641 5639 5637 5635 5632 5631 5631 5630 5627 5626 5624 5622 5621 5619 5615 5612 5607 5603 5597 5592 5587 5584 5582 5581 5577 5575 5571 5566 5561 5554 5553 5553 5554 5555 5560 5564 5566 5572 5579
5640 5637 5634 5632 5630 5627 5626 5625 5623 5621 5619 5618 5618 5617 5616 5614 5612 5610 5607 5604 5600 5596 5592 5587 5582 5578 5576 5575 5572 5569 5565 5561 5556 5550 5548 5548 5548 5551 5553 5556 5557 5562 5568
5627 5624 5622 5620 5618 5615 5614 5613 5610 5608 5608 5606 5604 5605 5604 5603 5602 5600 5598 5597 5593 5590 5586 5582 5576 5573 5571 5569 5566 5562 5559 5556 5552 5549 5546 5545 5546 5548 5549 5551 5554 5558 5560
5613 5609 5606 5605 5605 5602 5600 5599 5598 5597 5594 5592 5592 5592 5591 5591 5591 5590 5588 5587 5586 5583 5580 5577 5574 5569 5565 5563 5561 5558 5555 5552 5549 5546 5545 5544 5544 5544 5545 5547 5549 5551 5554
5594 5593 5591 5588 5587 5586 5585 5584 5582 5582 5581 5579 5579 5580 5578 5578 5578 5578 5578 5577 5576 5575 5573 5571 5568 5566 5562 5559 5556 5554 5552 5549 5545 5543 5543 5542 5542 5541 5542 5543 5544 5545 5547
5578 5574 5570 5568 5569 5568 5568 5567 5565 5566 5563 5564 5564 5563 5564 5565 5566 5566 5566 5566 5565 5565 5564 5563 5562 5560 5558 5556 5553 5550 5548 5546 5543 5542 5541 5540 5539 5539 5538 5540 5542 5542 5543
5554 5552 5549 5549 5549 5547 5545 5545 5546 5546 5544 5546 5547 5547 5547 5548 5551 5553 5554 5555 5555 5554 5554 5554 5553 5553 5552 5551 5549 5547 5545 5543 5542 5540 5539 5538 5538 5538 5538 5540 5540 5541 5542
5530 5530 5529 5530 5529 5526 5521 5521 5525 5525 5524 5526 5529 5530 5531 5533 5535 5538 5541 5542 5543 5544 5544 5544 5544 5544 5544 5544 5543 5542 5542 5541 5540 5539 5538 5538 5537 5536 5538 5538 5539 5539 5539
5513 5510 5508 5508 5509 5504 5500 5498 5500 5502 5502 5505 5508 5511 5514 5516 5519 5522 5526 5529 5531 5532 5533 5534 5534 5534 5534 5535 5535 5535 5535 5535 5534 5534 5533 5533 5533 5534 5534 5534 5535 5535 5535
5492 5488 5486 5486 5488 5485 5481 5478 5476 5477 5479 5483 5488 5493 5497 5500 5501 5506 5510 5514 5517 5520 5521 5523 5524 5524 5525 5525 5526 5526 5527 5527 5528 5527 5527 5527 5527 5527 5527 5527 5527 5528 5528
5471 5467 5464 5464 5465 5461 5459 5457 5453 5454 5456 5462 5468 5475 5480 5483 5484 5488 5493 5498 5503 5506 5508 5510 5512 5513 5514 5515 5515 5516 5517 5517 5518 5518 5519 5519 5519 5519 5519 5519 5519 5519 5519